#timestamp,LO_Frequency,Hit,StdDev 
1633633215.9,286047002.9,N
1633633235.7,286047005.3,Y
1633633255.5,286047002.8,P
1633633275.4,286047004.2,P
1633633295.2,286047004.3,P
1633633315.0,286047001.3,N
1633633315.9,286047001.3,N
1633633335.8,286047003.5,N
1633633355.6,286047003.2,N
1633633375.4,286047005.5,Y
1633633395.3,286047002.4,P
1633633415.1,286047001.4,P
1633633416.0,286047001.4,N
1633633435.8,286047001.6,N
1633633455.7,286047001.4,N
1633633475.5,286047004.1,Y
1633633495.3,286047002.3,P
1633633515.2,286047001.7,P
1633633535.9,286047004.4,P
1633633555.7,286047003.9,Y
1633633575.6,286047000.2,P
1633633595.4,286047001.9,N
1633633615.2,286047002.0,N
1633633635.1,286047002.4,N
1633633636.0,286047002.4,N
1633633655.8,286046999.8,N
1633633675.6,286046999.8,N
1633633695.5,286047001.4,N
1633633715.3,286047003.5,Y
1633633735.1,286047001.6,P
1633633755.9,286047003.8,P
1633633775.7,286047002.5,N
1633633795.5,286047001.5,N
1633633815.4,286047002.2,N
1633633835.2,286047003.8,Y
1633633855.0,286047002.7,P
1633633855.9,286047002.7,P
1633633875.8,286047002.5,P
1633633895.6,286047001.7,Y
1633633915.4,286047001.0,P
1633633935.3,286047001.9,N
1633633955.1,286046999.7,N
1633633975.8,286047002.0,N
1633633995.7,286047000.3,N
1633634015.5,286047000.1,N
1633634035.3,286047002.0,N
1633634055.2,286047003.7,Y
1633634075.0,286047002.3,P
1633634075.9,286047002.3,P
1633634095.8,286047000.0,N
1633634115.6,286047002.3,N
1633634135.4,286046999.7,N
1633634155.2,286047000.6,N
1633634175.1,286047002.0,N
1633634176.0,286047002.0,N
1633634195.8,286047001.6,N
1633634215.7,286047004.1,Y
1633634235.5,286047000.4,P
1633634255.3,286047000.3,N
1633634275.2,286047002.1,P
1633634295.9,286047002.5,Y
1633634315.7,286047000.0,P
1633634335.6,286047000.0,N
1633634355.4,286047000.1,N
1633634375.2,286047002.7,Y
1633634395.1,286046999.9,P
1633634396.0,286046999.9,N
1633634415.8,286047002.5,P
1633634435.6,286047000.9,N
1633634455.5,286047000.1,N
1633634475.3,286046999.7,N
1633634495.1,286047000.9,N
1633634515.9,286047001.0,N
1633634535.7,286047001.0,N
1633634555.5,286047000.7,N
1633634575.4,286047000.5,N
1633634595.2,286047000.8,N
1633634615.0,286047000.1,N
1633634615.9,286047000.1,N
1633634635.8,286047000.9,N
1633634655.6,286046999.9,N
1633634675.4,286046999.9,N
1633634695.3,286047000.4,N
1633634715.1,286047001.0,N
1633634716.0,286047001.0,N
1633634735.8,286046999.9,N
1633634755.7,286046999.9,N
1633634775.5,286047002.5,Y
1633634795.3,286047002.6,P
1633634815.2,286047001.8,N
1633634835.9,286047002.6,N
1633634855.7,286047004.1,Y
1633634875.6,286047002.5,P
1633634895.4,286046999.7,N
1633634915.2,286046999.7,N
1633634935.1,286047002.3,N
1633634936.0,286047002.3,N
1633634955.8,286047002.6,N
1633634975.6,286047000.1,N
1633634995.5,286047000.1,N
1633635015.3,286047002.8,N
1633635035.1,286047000.4,N
1633635055.9,286047000.2,N
1633635075.7,286046998.8,N
1633635095.5,286046998.2,N
1633635115.4,286046998.2,N
1633635135.2,286046999.3,N
1633635155.0,286046998.8,N
1633635155.9,286046998.8,N
1633635175.8,286046999.3,N
1633635195.6,286046998.9,N
1633635215.4,286046997.5,N
1633635235.3,286046997.6,N
1633635255.1,286046998.0,N
1633635256.0,286046998.0,N
1633635275.8,286046997.2,N
1633635295.7,286046997.8,N
1633635315.5,286046998.0,N
1633635335.3,286046996.1,N
1633635355.2,286046996.1,N
1633635375.9,286046994.2,Y
1633635395.7,286046993.8,P
1633635415.6,286046993.4,N
1633635435.4,286046996.4,N
1633635455.2,286046994.0,N
1633635475.1,286046994.5,N
1633635476.0,286046994.5,N
1633635495.8,286046994.2,Y
1633635515.6,286046997.0,P
1633635535.5,286046996.5,P
1633635555.3,286046996.7,P
1633635575.1,286046995.4,Y
1633635595.9,286047000.3,P
1633635615.7,286046998.3,N
1633635635.5,286046999.0,N
1633635655.4,286046997.0,N
1633635675.2,286046997.6,N
1633635695.0,286046998.0,N
1633635695.9,286046998.0,N
1633635715.8,286046994.9,Y
1633635735.6,286046996.6,P
1633635755.4,286046997.2,P
1633635775.3,286046996.9,P
1633635795.1,286046996.8,Y
1633635796.0,286046996.8,P
1633635815.8,286046996.5,P
1633635835.7,286046999.6,N
1633635855.5,286046997.1,N
1633635875.3,286046997.7,N
1633635895.2,286046995.4,Y
1633635915.9,286046997.3,P
1633635935.7,286046996.8,P
1633635955.6,286046997.2,P
1633635975.4,286046997.4,Y
1633635995.2,286047001.0,P
1633636015.1,286046998.3,N
1633636016.0,286046998.3,N
1633636035.8,286046999.3,N
1633636055.6,286046999.0,N
1633636075.5,286046999.1,N
1633636095.3,286046999.5,N
1633636115.1,286046999.2,N
1633636135.9,286046997.4,N
1633636155.7,286046998.0,N
1633636175.5,286046995.2,Y
1633636195.4,286046997.9,P
1633636215.2,286046997.2,P
1633636235.0,286046997.5,P
1633636235.9,286046997.5,Y
1633636255.8,286046998.6,P
1633636275.6,286046999.5,N
1633636295.4,286046997.8,P
1633636315.3,286046997.4,Y
1633636335.1,286046999.2,P
1633636355.8,286046996.5,P
1633636375.7,286046999.4,N
1633636395.5,286046996.6,N
1633636415.3,286046997.0,N
1633636435.2,286046999.5,N
1633636455.0,286046997.0,N
1633636455.9,286046997.0,N
1633636475.7,286046996.6,N
1633636495.6,286046997.4,N
1633636515.4,286046995.3,Y
1633636535.2,286046996.5,P
1633636555.1,286046999.0,N
1633636556.0,286046999.0,N
1633636575.8,286046996.6,Y
1633636595.6,286047000.7,P
1633636615.5,286047000.0,N
1633636635.3,286047000.9,N
1633636655.1,286046998.5,N
1633636675.9,286046998.5,N
1633636695.7,286046998.2,N
1633636715.5,286046999.4,N
1633636735.4,286046996.9,N
1633636755.2,286046999.1,N
1633636775.0,286046999.2,N
1633636775.9,286046999.2,N
1633636795.8,286046997.8,N
